When you browse on this site, cookies collect data to enhance your experience and personalize the content and advertising you see.
Visit our Privacy Policy to learn more. By continuing to use the site, you agree to this use of cookies and data.
  • In Hungary
  • List of Countries
  • For 7 days
  • Water Temperature
  • Satellite Maps
  • Weather Map
  • News
  • Weather Widgets
  • user-avatar
    Login

    Hourly Weather Harrisburg

    Today, 19 February, Tuesday

    Time Temperature Precipitation Wind Pressure Humidity
    00:00 -6°C° 0 mm 3 mps 762 mmHg 72%
    01:00 -5°C° 0 mm 2 mps 763 mmHg 76%
    02:00 -5°C° 0 mm 2 mps 764 mmHg 75%
    03:00 -6°C° 0 mm 3 mps 764 mmHg 74%
    04:00 -6°C° 0 mm 3 mps 765 mmHg 72%
    05:00 -7°C° 0 mm 3 mps 765 mmHg 71%
    06:00 -7°C° 0 mm 3 mps 766 mmHg 70%
    07:00 -6°C° 0 mm 2 mps 767 mmHg 66%
    08:00 -7°C° 0 mm 3 mps 767 mmHg 60%
    09:00 -6°C° 0 mm 3 mps 767 mmHg 54%
    10:00 -5°C° 0 mm 3 mps 768 mmHg 47%
    11:00 -4°C° 0 mm 3 mps 768 mmHg 44%
    12:00 -2°C° 0 mm 3 mps 767 mmHg 41%
    13:00 -1°C° 0 mm 3 mps 767 mmHg 38%
    14:00 0°C° 0 mm 3 mps 767 mmHg 39%
    15:00 0°C° 0 mm 3 mps 767 mmHg 40%
    16:00 +1°C° 0 mm 2 mps 766 mmHg 40%
    17:00 -1°C° 0 mm 2 mps 767 mmHg 45%
    18:00 0°C° 0 mm 1 mps 767 mmHg 50%
    19:00 -2°C° 0 mm 0 mps 767 mmHg 55%
    20:00 -1°C° 0 mm 1 mps 767 mmHg 56%
    21:00 -1°C° 0 mm 1 mps 767 mmHg 57%
    22:00 -1°C° 0 mm 1 mps 768 mmHg 58%
    23:00 -1°C° 0 mm 1 mps 768 mmHg 57%

    Tomorrow, 20 February, Wednesday

    Time Temperature Precipitation Wind Pressure Humidity
    00:00 -1°C° 0 mm 1 mps 767 mmHg 57%
    01:00 -1°C° 0 mm 1 mps 767 mmHg 57%
    02:00 -1°C° 0 mm 1 mps 767 mmHg 56%
    03:00 -1°C° 0 mm 1 mps 766 mmHg 56%
    04:00 -1°C° 0 mm 1 mps 766 mmHg 56%
    05:00 -1°C° 0 mm 1 mps 765 mmHg 56%
    06:00 -1°C° 0 mm 1 mps 765 mmHg 57%
    07:00 -3°C° 0 mm 2 mps 765 mmHg 58%
    08:00 -3°C° 1.3 mm 2 mps 765 mmHg 69%
    09:00 -4°C° 1.3 mm 3 mps 765 mmHg 80%
    10:00 -5°C° 1.3 mm 4 mps 765 mmHg 91%
    11:00 -5°C° 0.8 mm 4 mps 764 mmHg 91%
    12:00 -4°C° 0.8 mm 4 mps 763 mmHg 91%
    13:00 -4°C° 0.8 mm 4 mps 762 mmHg 91%
    14:00 -4°C° 1.2 mm 4 mps 761 mmHg 92%
    15:00 -4°C° 1.2 mm 4 mps 761 mmHg 92%
    16:00 -3°C° 1.2 mm 4 mps 760 mmHg 93%
    17:00 -4°C° 1 mm 5 mps 759 mmHg 94%
    18:00 -2°C° 1 mm 5 mps 758 mmHg 94%
    19:00 -1°C° 1 mm 5 mps 757 mmHg 95%
    20:00 -1°C° 1.5 mm 4 mps 756 mmHg 96%
    21:00 0°C° 1.5 mm 4 mps 755 mmHg 97%
    22:00 +1°C° 1.5 mm 3 mps 754 mmHg 99%
    23:00 +1°C° 3.6 mm 3 mps 753 mmHg 99%

    Day after tomorrow, 21 February, Thursday

    Time Temperature Precipitation Wind Pressure Humidity
    00:00 +2°C° 3.6 mm 2 mps 752 mmHg 99%
    01:00 +2°C° 3.6 mm 2 mps 751 mmHg 99%
    02:00 +2°C° 0.1 mm 2 mps 750 mmHg 99%
    03:00 +3°C° 0.1 mm 1 mps 749 mmHg 99%
    04:00 +3°C° 0.1 mm 1 mps 749 mmHg 99%
    05:00 +3°C° 0 mm 1 mps 749 mmHg 99%
    06:00 +2°C° 0 mm 2 mps 749 mmHg 99%
    07:00 +3°C° 0 mm 2 mps 749 mmHg 99%
    08:00 +2°C° 0 mm 3 mps 750 mmHg 97%
    09:00 +3°C° 0 mm 4 mps 751 mmHg 95%
    10:00 +4°C° 0 mm 4 mps 752 mmHg 93%
    11:00 +5°C° 0 mm 5 mps 752 mmHg 88%
    12:00 +5°C° 0 mm 5 mps 752 mmHg 82%
    13:00 +5°C° 0 mm 6 mps 752 mmHg 76%
    14:00 +6°C° 0 mm 5 mps 752 mmHg 75%
    15:00 +6°C° 0 mm 5 mps 752 mmHg 74%
    16:00 +6°C° 0 mm 4 mps 753 mmHg 73%
    17:00 +4°C° 0 mm 4 mps 753 mmHg 76%
    18:00 +3°C° 0 mm 4 mps 754 mmHg 79%
    19:00 +1°C° 0 mm 3 mps 755 mmHg 82%
    20:00 +1°C° 0 mm 3 mps 756 mmHg 83%
    21:00 0°C° 0 mm 3 mps 757 mmHg 83%
    22:00 0°C° 0 mm 3 mps 757 mmHg 84%
    23:00 0°C° 0 mm 3 mps 758 mmHg 83%

    22 February, Friday

    Time Temperature Precipitation Wind Pressure Humidity
    00:00 0°C° 0 mm 3 mps 758 mmHg 83%
    01:00 0°C° 0 mm 3 mps 759 mmHg 82%
    02:00 0°C° 0 mm 3 mps 759 mmHg 82%
    03:00 -1°C° 0 mm 3 mps 759 mmHg 82%
    04:00 -2°C° 0 mm 4 mps 759 mmHg 81%
    05:00 -1°C° 0 mm 3 mps 760 mmHg 82%
    06:00 -1°C° 0 mm 3 mps 760 mmHg 83%
    07:00 -2°C° 0 mm 2 mps 761 mmHg 84%
    08:00 +1°C° 0 mm 2 mps 761 mmHg 80%
    09:00 +2°C° 0 mm 2 mps 762 mmHg 76%
    10:00 +2°C° 0 mm 3 mps 762 mmHg 71%
    11:00 +3°C° 0 mm 3 mps 762 mmHg 68%
    12:00 +5°C° 0 mm 2 mps 762 mmHg 65%
    13:00 +6°C° 0 mm 2 mps 762 mmHg 61%
    14:00 +6°C° 0 mm 2 mps 762 mmHg 63%
    15:00 +6°C° 0 mm 2 mps 762 mmHg 66%
    16:00 +7°C° 0 mm 1 mps 762 mmHg 68%
    17:00 +6°C° 0 mm 1 mps 762 mmHg 71%
    18:00 +5°C° 0 mm 1 mps 763 mmHg 75%
    19:00 +3°C° 0 mm 0 mps 763 mmHg 79%
    20:00 +2°C° 0 mm 0 mps 763 mmHg 80%
    21:00 +2°C° 0 mm 0 mps 763 mmHg 81%
    22:00 +2°C° 0 mm 0 mps 764 mmHg 82%
    23:00 +2°C° 0 mm 0 mps 763 mmHg 82%

    23 February, Saturday

    Time Temperature Precipitation Wind Pressure Humidity
    00:00 +2°C° 0 mm 0 mps 763 mmHg 83%
    01:00 +1°C° 0 mm 0 mps 763 mmHg 84%
    02:00 +1°C° 0 mm 0 mps 762 mmHg 84%
    03:00 +1°C° 0 mm 0 mps 762 mmHg 84%
    04:00 +1°C° 0 mm 0 mps 762 mmHg 84%
    05:00 +2°C° 0 mm 1 mps 762 mmHg 85%
    06:00 +2°C° 0 mm 1 mps 762 mmHg 85%
    07:00 +2°C° 0 mm 1 mps 762 mmHg 86%
    08:00 +3°C° 0 mm 1 mps 762 mmHg 83%
    09:00 +3°C° 0 mm 2 mps 762 mmHg 80%
    10:00 +4°C° 0 mm 2 mps 762 mmHg 77%
    11:00 +3°C° 0 mm 3 mps 761 mmHg 77%
    12:00 +4°C° 0 mm 3 mps 760 mmHg 76%
    13:00 +5°C° 0 mm 3 mps 759 mmHg 76%
    14:00 +5°C° 0 mm 4 mps 759 mmHg 78%
    15:00 +5°C° 0 mm 4 mps 758 mmHg 79%
    16:00 +5°C° 0 mm 4 mps 757 mmHg 81%
    17:00 +4°C° 0 mm 4 mps 757 mmHg 84%
    18:00 +4°C° 0 mm 4 mps 756 mmHg 87%
    19:00 +3°C° 0 mm 3 mps 756 mmHg 91%
    20:00 +3°C° 0.2 mm 3 mps 755 mmHg 92%
    21:00 +3°C° 0.2 mm 3 mps 754 mmHg 93%
    22:00 +3°C° 0.2 mm 4 mps 753 mmHg 94%
    23:00 +4°C° 3 mm 3 mps 752 mmHg 95%

    24 February, Sunday

    Time Temperature Precipitation Wind Pressure Humidity
    00:00 +4°C° 3 mm 3 mps 751 mmHg 95%
    01:00 +4°C° 3 mm 3 mps 750 mmHg 96%
    02:00 +4°C° 2.1 mm 3 mps 748 mmHg 97%
    03:00 +4°C° 2.1 mm 3 mps 747 mmHg 97%
    04:00 +5°C° 2.1 mm 3 mps 746 mmHg 97%
    05:00 +6°C° 0.2 mm 2 mps 745 mmHg 97%
    06:00 +6°C° 0.2 mm 2 mps 744 mmHg 97%
    07:00 +7°C° 0.2 mm 2 mps 743 mmHg 97%
    08:00 +9°C° 0 mm 3 mps 742 mmHg 94%
    09:00 +11°C° 0 mm 4 mps 741 mmHg 92%
    10:00 +13°C° 0 mm 4 mps 741 mmHg 89%
    11:00 +15°C° 0.1 mm 5 mps 740 mmHg 77%
    12:00 +17°C° 0.1 mm 7 mps 739 mmHg 66%
    13:00 +20°C° 0.1 mm 8 mps 738 mmHg 54%
    14:00 +17°C° 0 mm 7 mps 738 mmHg 56%
    15:00 +16°C° 0 mm 7 mps 738 mmHg 58%
    16:00 +15°C° 0 mm 7 mps 738 mmHg 60%
    17:00 +11°C° 0 mm 7 mps 739 mmHg 63%
    18:00 +9°C° 0 mm 6 mps 740 mmHg 67%
    19:00 +7°C° 0 mm 6 mps 740 mmHg 70%
    20:00 +5°C° 0 mm 6 mps 740 mmHg 69%
    21:00 +5°C° 0 mm 6 mps 741 mmHg 68%
    22:00 +5°C° 0 mm 7 mps 741 mmHg 67%
    23:00 +4°C° 0 mm 7 mps 741 mmHg 66%
    Show more